Regional Weather Roundup
Issued by NWS Charleston, WV

Home | Current Version | Previous Version | Graphics & Text | Print | Product List | Glossary On
Versions: 1 2 3 4 5 6 7 8 9 10 11 12 13 14 15 16 17 18 19 20 21 22 23 24 25 26 27 28 29 30 31 32 33 34 35 36 37 38 39 40 41 42 43 44 45 46 47 48 49 50
000
ASUS41 KRLX 232310
RWRRLX
West Virginia Regional Weather Roundup
National Weather Service Charleston WV
700 PM EDT SAT MAY 23 2015

Note: "fair" indicates few or no clouds below 12,000 feet with no
significant weather and/or obstructions to visibility.

WVZ003-240000-
Northern Panhandle of West Virginia

CITY           SKY/WX    TMP DP  RH WIND       PRES   REMARKS
WHEELING       NOT AVBL
$$

WVZ009-240000-
Northwest West Virginia

CITY           SKY/WX    TMP DP  RH WIND       PRES   REMARKS
PARKERSBURG    SUNNY     75  40  28 W5        30.35F
$$

WVZ006-240000-
Western West Virginia

CITY           SKY/WX    TMP DP  RH WIND       PRES   REMARKS
HUNTINGTON     SUNNY     75  42  30 SE3       30.32S
$$

WVZ015-240000-
West Central West Virginia

CITY           SKY/WX    TMP DP  RH WIND       PRES   REMARKS
CHARLESTON     MOSUNNY   77  42  28 N5        30.32F
$$

WVZ022-031-240000-
North Central West Virginia

CITY           SKY/WX    TMP DP  RH WIND       PRES   REMARKS
CLARKSBURG     SUNNY     73  37  27 NW3       30.34F
MORGANTOWN     SUNNY     72  35  25 SE6       30.35F
$$

WVZ025-035-042-045-240000-
Southern West Virginia

CITY           SKY/WX    TMP DP  RH WIND       PRES   REMARKS
BECKLEY        MOSUNNY   71  42  35 N7        30.37F
LOGAN            N/A     73  50  43 MISG      30.31F
BLUEFIELD      PTSUNNY   73  41  31 W3        30.39F
LEWISBURG      SUNNY     74  42  32 SW6       30.37F
$$

WVZ047-240000-
Northern Mountains of West Virginia

CITY           SKY/WX    TMP DP  RH WIND       PRES   REMARKS
ELKINS         SUNNY     70  36  28 NW5       30.37F
$$

WVZ052-240000-
Eastern Panhandle of West Virginia

CITY           SKY/WX    TMP DP  RH WIND       PRES   REMARKS
MARTINSBURG    SUNNY     70  42  36 SE5       30.35F
PETERSBURG     SUNNY     75  35  23 E3        30.33S
$$


USA.gov is the U.S. government's official web portal to all federal, state and local government web resources and services.